Yakutat, AK

11:13 AM AKDT on September 25, 2017 (GMT -0800)
Yakutat

Weather History for PAYA - October, 2012

Change the Weather History Date:

Tuesday, October 9, 2012

  Actual Average Record
Temperature  
Mean Temperature 47 °F 43 °F  
Max Temperature 51 °F 50 °F 58 °F (1950)
Min Temperature 43 °F 37 °F 18 °F (1959)
Degree Days  
Heating Degree Days 18 22  
Month to date heating degree days 175 186  
Since 1 July heating degree days 1437 1362  
Cooling Degree Days 0    
Month to date cooling degree days 0  
Year to date cooling degree days 0  
Moisture  
Dew Point 45 °F    
Average Humidity 0    
Maximum Humidity 0    
Minimum Humidity 0    
Precipitation  
Precipitation 0.05 in 0.79 in 2.96 in (2014)
Month to date precipitation 2.09 7.24  
Year to date precipitation 88.17 109.65  
Snow  
Snow 0.00 in 0.00 in T in (1992)
Month to date snowfall 0.0 0.1  
Since 1 July snowfall T 0.1  
Since 1 September snowfall 0.0 0.1  
Snow Depth 0.00 in    
Sea Level Pressure  
Sea Level Pressure 30.07 in    
Wind  
Wind Speed 1 mph (North)    
Max Wind Speed 6 mph    
Max Gust Speed 7 mph    
Visibility 6 miles    
Events Fog , Rain    
T = Trace of Precipitation, MM = Missing Value Source: NWS Daily Summary

Daily Weather History Graph

Daily Weather History Graph

Search for Another Location

Airport or City:

Trip Planner

Search our weather history database for the weather conditions in past years. The results will help you decide how hot, cold, wet, or windy it might be!

Date:

Astronomy

Oct. 09, 2012 Rise Set
Actual Time 7:44 AM AKDT 6:25 PM AKDT
Civil Twilight 7:03 AM AKDT 7:07 PM AKDT
Nautical Twilight 6:15 AM AKDT 7:54 PM AKDT
Astronomical Twilight 5:26 AM AKDT 8:42 PM AKDT
Moon 12:04 AM AKDT (10/9) 4:12 PM AKDT (10/9)
Length of Visible Light 12h 03m
Length of Day
10h 41m
Waning Crescent, 35% of the Moon is Illuminated
Oct 9
Waning Crescent
Oct 15
New
Oct 21
First Quarter
Oct 29
Full
Nov 6
Last Quarter

Hourly Weather History & Observations

Time (AKDT) Temp. Windchill Dew Point Humidity Pressure Visibility Wind Dir Wind Speed Gust Speed Precip Events Conditions
12:02 AM 44.6 °F 43.1 °F 44.6 °F 100% 30.10 in 2.5 mi East 3.5 mph - N/A   Overcast
12:09 AM 44.6 °F - 44.6 °F 100% 30.10 in 4.0 mi Calm Calm - N/A   Overcast
12:53 AM 45.0 °F - 45.0 °F 100% 30.10 in 10.0 mi Calm Calm - N/A   Overcast
1:38 AM 44.6 °F - 44.6 °F 100% 30.09 in 3.0 mi Calm Calm - N/A   Overcast
1:46 AM 44.6 °F - 44.6 °F 100% 30.09 in 2.5 mi Calm Calm - 0.00 in Rain Light Rain
1:49 AM 44.6 °F - 44.6 °F 100% 30.09 in 3.0 mi Calm Calm - 0.00 in   Overcast
1:53 AM 45.0 °F - 45.0 °F 100% 30.10 in 6.0 mi Calm Calm - 0.00 in   Overcast
2:05 AM 44.6 °F - 44.6 °F 100% 30.09 in 8.0 mi Calm Calm - N/A   Overcast
2:28 AM 44.6 °F - 44.6 °F 100% 30.10 in 10.0 mi Calm Calm - 0.01 in   Overcast
2:53 AM 45.0 °F 43.5 °F 44.1 °F 97% 30.09 in 10.0 mi Variable 3.5 mph - 0.01 in   Overcast
3:01 AM 44.6 °F 43.1 °F 44.6 °F 100% 30.09 in 10.0 mi East 3.5 mph - N/A   Overcast
3:08 AM 44.6 °F 43.1 °F 44.6 °F 100% 30.09 in 10.0 mi East 3.5 mph - N/A   Overcast
3:53 AM 45.0 °F - 45.0 °F 100% 30.09 in 10.0 mi Calm Calm - N/A   Overcast
4:10 AM 44.6 °F - 44.6 °F 100% 30.08 in 10.0 mi Calm Calm - N/A   Overcast
4:53 AM 45.0 °F - 44.1 °F 97% 30.08 in 10.0 mi Calm Calm - N/A   Overcast
5:53 AM 44.1 °F - 44.1 °F 100% 30.07 in 7.0 mi Calm Calm - N/A   Overcast
6:35 AM 44.6 °F 43.1 °F 44.6 °F 100% 30.07 in 5.0 mi NE 3.5 mph - N/A   Overcast
6:38 AM 44.6 °F - 44.6 °F 100% 30.07 in 1.5 mi Calm Calm - N/A   Overcast
6:41 AM 44.6 °F - 42.8 °F 93% 30.07 in 0.8 mi Calm Calm - N/A   Overcast
6:53 AM 44.1 °F - 44.1 °F 100% 30.07 in 0.2 mi Calm Calm - N/A Fog Fog
7:02 AM 44.6 °F - 44.6 °F 100% 30.07 in 0.5 mi Calm Calm - N/A Fog Fog
7:11 AM 44.6 °F 43.1 °F 44.6 °F 100% 30.07 in 1.0 mi East 3.5 mph - N/A   Mist
7:16 AM 44.6 °F 43.1 °F 44.6 °F 100% 30.07 in 2.0 mi East 3.5 mph - N/A   Overcast
7:24 AM 44.6 °F 43.1 °F 44.6 °F 100% 30.07 in 6.0 mi East 3.5 mph - N/A   Overcast
7:32 AM 42.8 °F - 42.8 °F 100% 30.07 in 7.0 mi Calm Calm - N/A   Overcast
7:40 AM 42.8 °F - 42.8 °F 100% 30.07 in 9.0 mi Calm Calm - N/A   Overcast
7:53 AM 43.0 °F - 43.0 °F 100% 30.07 in 6.0 mi Calm Calm - N/A   Overcast
8:28 AM 42.8 °F - 42.8 °F 100% 30.07 in 4.0 mi Calm Calm - N/A   Overcast
8:34 AM 42.8 °F - 42.8 °F 100% 30.07 in 1.8 mi Calm Calm - N/A   Overcast
8:47 AM 42.8 °F - 42.8 °F 100% 30.06 in 3.0 mi Calm Calm - N/A   Overcast
8:53 AM 43.0 °F - 43.0 °F 100% 30.07 in 8.0 mi Calm Calm - N/A   Overcast
9:07 AM 42.8 °F - 42.8 °F 100% 30.07 in 4.0 mi Calm Calm - N/A   Overcast
9:11 AM 44.6 °F 43.1 °F 44.6 °F 100% 30.07 in 1.8 mi East 3.5 mph - N/A   Overcast
9:24 AM 44.6 °F - 44.6 °F 100% 30.07 in 3.0 mi Calm Calm - N/A   Overcast
9:44 AM 44.6 °F - 44.6 °F 100% 30.07 in 8.0 mi Calm Calm - N/A   Overcast
9:53 AM 45.0 °F - 44.1 °F 97% 30.07 in 9.0 mi Calm Calm - N/A   Overcast
10:22 AM 44.6 °F - 44.6 °F 100% 30.07 in 1.8 mi Calm Calm - N/A   Overcast
10:40 AM 46.4 °F - 46.4 °F 100% 30.06 in 3.0 mi Calm Calm - N/A   Overcast
10:53 AM 46.9 °F - 45.0 °F 93% 30.07 in 10.0 mi Calm Calm - N/A   Overcast
11:12 AM 48.2 °F - 46.4 °F 93% 30.06 in 10.0 mi Calm Calm - N/A   Overcast
11:53 AM 48.9 °F - 45.0 °F 86% 30.07 in 10.0 mi Calm Calm - N/A   Overcast
12:53 PM 48.9 °F - 45.0 °F 86% 30.07 in 10.0 mi West 4.6 mph - 0.00 in   Overcast
1:53 PM 48.9 °F - 46.9 °F 93% 30.06 in 10.0 mi ENE 4.6 mph - N/A   Overcast
2:15 PM 48.2 °F - 46.4 °F 93% 30.06 in 6.0 mi Variable 4.6 mph - N/A   Overcast
2:28 PM 48.2 °F - 46.4 °F 93% 30.05 in 2.5 mi North 3.5 mph - N/A   Overcast
2:36 PM 48.2 °F - 46.4 °F 93% 30.05 in 2.5 mi Calm Calm - N/A   Overcast
2:42 PM 48.2 °F - 46.4 °F 93% 30.05 in 3.0 mi NNW 3.5 mph - N/A   Overcast
2:53 PM 48.0 °F - 46.0 °F 93% 30.06 in 9.0 mi Calm Calm - N/A   Overcast
3:19 PM 46.4 °F 43.5 °F 46.4 °F 100% 30.05 in 1.8 mi WSW 5.8 mph - 0.00 in Rain Light Rain
3:35 PM 48.2 °F - 46.4 °F 93% 30.05 in 1.5 mi WSW 3.5 mph - 0.01 in Rain Light Rain
3:40 PM 48.2 °F - 46.4 °F 93% 30.05 in 1.2 mi West 3.5 mph - 0.02 in Rain Light Rain
3:53 PM 48.0 °F - 46.0 °F 93% 30.05 in 1.5 mi West 3.5 mph - 0.02 in   Overcast
4:04 PM 48.2 °F - 46.4 °F 93% 30.05 in 2.0 mi West 3.5 mph - N/A   Overcast
4:14 PM 48.2 °F - 46.4 °F 93% 30.05 in 1.2 mi NW 5.8 mph - N/A   Overcast
4:26 PM 46.4 °F 45.2 °F 46.4 °F 100% 30.04 in 2.0 mi NW 3.5 mph - 0.01 in   Overcast
4:36 PM 46.4 °F 45.2 °F 46.4 °F 100% 30.04 in 6.0 mi NNW 3.5 mph - 0.01 in   Overcast
4:44 PM 46.4 °F 45.2 °F 46.4 °F 100% 30.04 in 10.0 mi NW 3.5 mph - 0.01 in   Overcast
4:53 PM 48.0 °F - 46.9 °F 96% 30.05 in 10.0 mi Calm Calm - 0.01 in   Overcast
5:27 PM 46.4 °F - 46.4 °F 100% 30.05 in 2.5 mi Calm Calm - N/A   Overcast
5:41 PM 46.4 °F - 46.4 °F 100% 30.05 in 1.5 mi Calm Calm - N/A   Overcast
5:49 PM 46.4 °F - 46.4 °F 100% 30.05 in 1.0 mi Calm Calm - N/A   Overcast
5:53 PM 46.9 °F - 46.9 °F 100% 30.05 in 1.2 mi Calm Calm - N/A   Overcast
5:56 PM 46.4 °F - 46.4 °F 100% 30.05 in 1.5 mi Calm Calm - N/A   Overcast
6:02 PM 46.4 °F - 46.4 °F 100% 30.05 in 3.0 mi Calm Calm - N/A   Overcast
6:09 PM 46.4 °F - 46.4 °F 100% 30.05 in 5.0 mi Calm Calm - N/A   Overcast
6:19 PM 46.4 °F 45.2 °F 46.4 °F 100% 30.05 in 4.0 mi North 3.5 mph - N/A   Overcast
6:53 PM 46.0 °F - 46.0 °F 100% 30.06 in 10.0 mi Calm Calm - N/A   Overcast
7:24 PM 46.4 °F - 44.6 °F 93% 30.06 in 10.0 mi Calm Calm - N/A   Overcast
7:53 PM 46.0 °F - 46.0 °F 100% 30.06 in 10.0 mi Calm Calm - N/A   Overcast
8:07 PM 46.4 °F - 44.6 °F 93% 30.05 in 9.0 mi Calm Calm - N/A   Overcast
8:53 PM 46.0 °F - 45.0 °F 96% 30.06 in 10.0 mi Calm Calm - N/A   Overcast
9:53 PM 46.0 °F - 45.0 °F 96% 30.06 in 10.0 mi Calm Calm - N/A   Overcast
10:53 PM 46.0 °F - 45.0 °F 96% 30.07 in 10.0 mi Calm Calm - N/A   Overcast
11:53 PM 45.0 °F - 45.0 °F 100% 30.08 in 5.0 mi Calm Calm - N/A   Overcast